Terminal Aerodrome Forecast
Issued by NWS

Home | Current Version | Previous Version | Text Only | Print | Product List | Glossary On
Versions: 1 2 3 4 5 6 7 8 9 10 11 12 13 14 15 16 17 18 19 20 21 22 23 24 25 26 27 28 29 30 31 32 33 34 35 36 37 38 39 40 41 42 43 44 45 46 47 48 49 50
000
FTUS41 KCTP 012340
TAFBFD
TAF
KBFD 012340Z 0200/0224 VRB03KT P6SM SCT050
     FM020300 VRB03KT 4SM BR BKN250
     FM020700 15003KT 1 1/2SM BR OVC004
     FM021500 15003KT P6SM BKN250
     FM021800 14004KT P6SM VCSH BKN040=

USA.gov is the U.S. government's official web portal to all federal, state and local government web resources and services.